Silver City, NM

9:06 AM MDT on April 22, 2018 (GMT -0600)
Grant County

Weather History for KSVC - March, 2013

Change the Weather History Date:

Friday, March 15, 2013

  Actual Average (KDMN) Record (KDMN)
Temperature  
Mean Temperature 60 °F -  
Max Temperature 78 °F 69 °F 86 °F (2007)
Min Temperature 42 °F 33 °F 15 °F (1962)
Degree Days  
Heating Degree Days 5    
Growing Degree Days 10 (Base 50)    
Moisture  
Dew Point 10 °F    
Average Humidity 17    
Maximum Humidity 29    
Minimum Humidity 6    
Precipitation  
Precipitation 0.00 in - - ()
Sea Level Pressure  
Sea Level Pressure 30.18 in    
Wind  
Wind Speed 11 mph (NW)    
Max Wind Speed 18 mph    
Max Gust Speed 24 mph    
Visibility 10 miles    
Events      
Averages and records for this station are not official NWS values.
T = Trace of Precipitation, MM = Missing Value Source: NWS Daily Summary

Daily Weather History Graph

Daily Weather History Graph

Search for Another Location

Airport or City:

Astronomy

Mar. 15, 2013 Rise Set
Actual Time 7:22 AM MDT 7:20 PM MDT
Civil Twilight 6:57 AM MDT 7:45 PM MDT
Nautical Twilight 6:29 AM MDT 8:13 PM MDT
Astronomical Twilight 6:00 AM MDT 8:42 PM MDT
Moon 9:29 AM MDT (3/15) 11:21 PM MDT (3/15)
Length of Visible Light 12h 47m
Length of Day
11h 58m
Waxing Crescent, 16% of the Moon is Illuminated
Mar 15
Waxing Crescent
Mar 19
First Quarter
Mar 27
Full
Apr 2
Last Quarter
Apr 10
New

Hourly Weather History & Observations

Time (MDT) Temp. Windchill Dew Point Humidity Pressure Visibility Wind Dir Wind Speed Gust Speed Precip Events Conditions
12:15 AM 46.4 °F 41.1 °F 12.2 °F 25% 30.28 in 10.0 mi North 11.5 mph - N/A   Clear
12:35 AM 46.4 °F 41.5 °F 12.2 °F 25% 30.28 in 10.0 mi North 10.4 mph - N/A   Clear
12:55 AM 46.4 °F 41.1 °F 12.2 °F 25% 30.27 in 10.0 mi North 11.5 mph - N/A   Clear
1:15 AM 46.4 °F 41.1 °F 12.2 °F 25% 30.27 in 10.0 mi North 11.5 mph - N/A   Clear
1:35 AM 46.4 °F 41.1 °F 12.2 °F 25% 30.27 in 10.0 mi North 11.5 mph - N/A   Clear
1:55 AM 46.4 °F 40.7 °F 12.2 °F 25% 30.27 in 10.0 mi North 12.7 mph - N/A   Clear
2:15 AM 44.6 °F 38.8 °F 12.2 °F 27% 30.26 in 10.0 mi North 11.5 mph - N/A   Clear
2:35 AM 46.4 °F 41.1 °F 12.2 °F 25% 30.26 in 10.0 mi North 11.5 mph - N/A   Clear
2:55 AM 46.4 °F 41.1 °F 12.2 °F 25% 30.26 in 10.0 mi North 11.5 mph - N/A   Clear
3:35 AM 46.4 °F 40.7 °F 12.2 °F 25% 30.24 in 10.0 mi North 12.7 mph - N/A   Clear
3:55 AM 44.6 °F 40.7 °F 12.2 °F 27% 30.24 in 10.0 mi North 6.9 mph - N/A   Clear
4:15 AM 44.6 °F 38.8 °F 12.2 °F 27% 30.24 in 10.0 mi North 11.5 mph - N/A   Clear
4:35 AM 44.6 °F 38.4 °F 12.2 °F 27% 30.24 in 10.0 mi North 12.7 mph - N/A   Clear
4:55 AM 44.6 °F 39.2 °F 12.2 °F 27% 30.24 in 10.0 mi North 10.4 mph - N/A   Clear
5:15 AM 44.6 °F 39.2 °F 12.2 °F 27% 30.24 in 10.0 mi North 10.4 mph - N/A   Clear
5:35 AM 44.6 °F 39.2 °F 12.2 °F 27% 30.24 in 10.0 mi North 10.4 mph - N/A   Clear
5:55 AM 42.8 °F 36.6 °F 12.2 °F 29% 30.24 in 10.0 mi North 11.5 mph - N/A   Clear
6:15 AM 42.8 °F 37.0 °F 12.2 °F 29% 30.23 in 10.0 mi North 10.4 mph - N/A   Clear
6:35 AM 42.8 °F 36.6 °F 12.2 °F 29% 30.23 in 10.0 mi North 11.5 mph - N/A   Clear
6:55 AM 42.8 °F 37.0 °F 12.2 °F 29% 30.24 in 10.0 mi North 10.4 mph - N/A   Clear
7:15 AM 42.8 °F 36.2 °F 12.2 °F 29% 30.23 in 10.0 mi North 12.7 mph - N/A   Clear
7:35 AM 42.8 °F 36.2 °F 12.2 °F 29% 30.23 in 10.0 mi North 12.7 mph - N/A   Clear
7:55 AM 46.4 °F 41.9 °F 14.0 °F 27% 30.24 in 10.0 mi NNW 9.2 mph - N/A   Clear
8:15 AM 50.0 °F - 14.0 °F 24% 30.25 in 10.0 mi NNW 8.1 mph - N/A   Clear
8:35 AM 53.6 °F - 14.0 °F 21% 30.25 in 10.0 mi NW 6.9 mph - N/A   Clear
9:55 AM 66.2 °F - 14.0 °F 13% 30.26 in 10.0 mi Calm Calm - N/A   Clear
10:15 AM 69.8 °F - 8.6 °F 9% 30.26 in 10.0 mi SSW 3.5 mph - N/A   Clear
10:35 AM 71.6 °F - 8.6 °F 9% 30.26 in 10.0 mi South 8.1 mph - N/A   Clear
10:55 AM 71.6 °F - 8.6 °F 9% 30.25 in 10.0 mi SW 4.6 mph - N/A   Clear
11:15 AM 71.6 °F - 8.6 °F 9% 30.25 in 10.0 mi SSW 6.9 mph - N/A   Clear
11:35 AM 73.4 °F - 8.6 °F 8% 30.24 in 10.0 mi SSE 10.4 mph - N/A   Clear
11:55 AM 73.4 °F - 8.6 °F 8% 30.23 in 10.0 mi SW 6.9 mph - N/A   Clear
12:15 PM 73.4 °F - 8.6 °F 8% 30.23 in 10.0 mi Calm Calm - N/A   Clear
12:35 PM 75.2 °F - 8.6 °F 8% 30.21 in 10.0 mi SW 9.2 mph - N/A   Clear
12:55 PM 77.0 °F - 8.6 °F 7% 30.20 in 10.0 mi SSW 9.2 mph 16.1 mph N/A   Clear
1:15 PM 75.2 °F - 10.4 °F 8% 30.19 in 10.0 mi SW 5.8 mph - N/A   Clear
1:55 PM 75.2 °F - 8.6 °F 8% 30.17 in 10.0 mi West 5.8 mph - N/A   Clear
2:15 PM 77.0 °F - 12.2 °F 9% 30.15 in 10.0 mi West 8.1 mph 16.1 mph N/A   Clear
2:35 PM 78.8 °F - 14.0 °F 9% 30.14 in 10.0 mi NW 17.3 mph - N/A   Clear
2:55 PM 77.0 °F - 12.2 °F 9% 30.13 in 10.0 mi WSW 15.0 mph 21.9 mph N/A   Clear
3:15 PM 77.0 °F - 8.6 °F 7% 30.12 in 10.0 mi WNW 15.0 mph 21.9 mph N/A   Clear
3:35 PM 77.0 °F - 8.6 °F 7% 30.12 in 10.0 mi West 12.7 mph 16.1 mph N/A   Clear
3:55 PM 77.0 °F - 8.6 °F 7% 30.11 in 10.0 mi WNW 10.4 mph 23.0 mph N/A   Clear
4:15 PM 77.0 °F - 6.8 °F 7% 30.11 in 10.0 mi West 11.5 mph 20.7 mph N/A   Clear
4:35 PM 77.0 °F - 6.8 °F 7% 30.10 in 10.0 mi WNW 18.4 mph 23.0 mph N/A   Clear
4:55 PM 77.0 °F - 5.0 °F 6% 30.10 in 10.0 mi West 17.3 mph 23.0 mph N/A   Clear
5:15 PM 77.0 °F - 6.8 °F 7% 30.10 in 10.0 mi West 15.0 mph 19.6 mph N/A   Clear
5:35 PM 75.2 °F - 6.8 °F 7% 30.09 in 10.0 mi WNW 13.8 mph 24.2 mph N/A   Clear
5:55 PM 75.2 °F - 6.8 °F 7% 30.09 in 10.0 mi West 15.0 mph 23.0 mph N/A   Clear
6:15 PM 75.2 °F - 8.6 °F 8% 30.09 in 10.0 mi WNW 13.8 mph - N/A   Clear
6:35 PM 75.2 °F - 8.6 °F 8% 30.09 in 10.0 mi West 15.0 mph - N/A   Clear
6:55 PM 71.6 °F - 6.8 °F 8% 30.09 in 10.0 mi WNW 10.4 mph - N/A   Clear
7:15 PM 68.0 °F - 6.8 °F 9% 30.09 in 10.0 mi WNW 9.2 mph - N/A   Clear
7:35 PM 62.6 °F - 6.8 °F 11% 30.09 in 10.0 mi NW 8.1 mph - N/A   Clear
7:55 PM 57.2 °F - 6.8 °F 13% 30.08 in 10.0 mi NNW 9.2 mph - N/A   Clear
8:15 PM 55.4 °F - 6.8 °F 14% 30.09 in 10.0 mi NNW 9.2 mph - N/A   Clear
8:35 PM 53.6 °F - 6.8 °F 15% 30.08 in 10.0 mi NNW 11.5 mph - N/A   Clear
8:55 PM 53.6 °F - 6.8 °F 15% 30.09 in 10.0 mi North 11.5 mph - N/A   Clear
9:15 PM 59.0 °F - 8.6 °F 14% 30.09 in 10.0 mi NNW 10.4 mph - N/A   Clear
9:35 PM 59.0 °F - 10.4 °F 15% 30.09 in 10.0 mi North 10.4 mph - N/A   Clear
9:55 PM 55.4 °F - 10.4 °F 17% 30.09 in 10.0 mi NNW 9.2 mph - N/A   Clear
10:15 PM 55.4 °F - 12.2 °F 18% 30.09 in 10.0 mi North 9.2 mph - N/A   Clear
10:35 PM 57.2 °F - 14.0 °F 18% 30.09 in 10.0 mi North 10.4 mph - N/A   Clear
10:55 PM 55.4 °F - 14.0 °F 20% 30.10 in 10.0 mi North 9.2 mph - N/A   Clear
11:55 PM 57.2 °F - 15.8 °F 20% 30.09 in 10.0 mi NW 12.7 mph - N/A   Clear